[[{"header":{"parameterUnit":"m.s-1","parameterCategory":1,"la1":30.2991,"la2":30.254,"lo1":-89.0895,"lo2":-89.0444,"dy":0.0017,"dx":0.0017,"nx":28,"ny":28,"refTime":"2024-06-23T03:00:00:Z","depth":0,"parameterNumber":2,"parameterNumberName":"U-component_of_WINDS"},"data":[0,0,0,0,0,0,0,0,0,0,0,0,0,0,0,0,0,0,0,0,0,0,0,0,0,0,0,0,0,0,0,0,0,0,0,0,0,0,0,0,0,0,0,0,0,0,0,0,0,0,0,0,0,0,0,0,0,0,1.3933,1.3934,0,1.403,1.4031,1.4032,1.404,1.4039,1.4038,1.4037,1.4136,1.4139,1.4143,0,0,0,0,0,0,0,0,0,0,0,0,0,1.3753,1.3757,1.3933,1.3934,1.3935,1.403,1.4031,1.4032,1.404,1.4039,1.4038,1.4036,1.4134,1.4139,1.4143,0,0,0,0,0,0,0,0,0,0,0,0,0,1.3839,1.3758,1.3933,1.3951,1.3953,1.4029,1.4031,1.4033,1.404,1.4039,1.4037,1.4036,1.4133,1.4138,1.4144,1.4208,0,0,1.416,1.4162,0,0,0,0,0,0,0,0,1.3834,1.3845,1.3947,1.395,1.3953,1.4021,1.4004,1.4092,1.4041,1.4007,1.4037,1.4035,1.4099,1.4107,1.4128,1.4213,1.4217,1.416,1.4164,1.4166,1.4168,0,0,0,0,0,0,0,1.3828,1.3841,1.3971,1.3948,1.3952,1.3953,1.3964,1.4021,1.4061,1.401,1.4011,1.4022,1.41,1.4123,1.4131,1.4219,1.416,1.4165,1.4168,1.4171,1.4359,1.4361,0,0,0,0,0,0,1.3819,1.3836,1.3968,1.3974,1.3888,1.3958,1.397,1.4001,1.406,1.4068,1.4024,1.4022,1.4115,1.4125,1.4134,1.4212,1.4166,1.4171,1.4174,1.4357,1.4359,1.4361,0,0,0,0,0,0,1.3815,1.3831,1.3964,1.3906,1.3923,1.3963,1.3998,1.4004,1.4027,1.407,1.4077,1.404,1.4114,1.4127,1.4189,1.4216,1.4174,1.4178,1.4355,1.4358,1.436,1.437,0,0,0,0,0,0,1.381,1.3829,1.3855,1.3906,1.3926,1.4018,1.3999,1.4007,1.4036,1.4035,1.4087,1.4095,1.4114,1.4181,1.4195,1.4223,1.4183,1.4353,1.4356,1.4359,1.4368,1.4373,1.4377,0,0,0,0,0,1.3803,1.3854,1.3856,1.3872,1.3958,1.402,1.4031,1.4052,1.4038,1.4064,1.4091,1.4093,1.4211,1.4188,1.4203,1.4233,1.4351,1.4355,1.4359,1.4365,1.4372,1.4377,0,0,0,0,0,0,1.3805,1.3861,1.3864,1.3932,1.3971,1.4021,1.4054,1.4058,1.4102,1.4099,1.4124,1.4135,1.4197,1.4221,1.4194,1.4298,1.428,1.4287,1.4279,1.4286,1.429,1.4282,1.4187,0,0,0,0,0,1.3813,1.3858,1.3905,1.3961,1.398,1.4014,1.4041,1.4054,1.4095,1.4111,1.4144,1.4183,1.4229,1.4259,1.4304,1.4371,1.4382,1.4399,1.4404,1.4408,1.4414,1.4449,1.4457,1.4374,1.4374,1.4374,0,0,1.383,1.3867,1.3894,1.3962,1.3994,1.4039,1.4027,1.4077,1.4111,1.4119,1.418,1.4205,1.425,1.4315,1.4346,1.4338,1.4439,1.4413,1.4416,1.4419,1.4454,1.4462,1.4469,1.4377,1.4376,1.4376,0,0,1.3885,1.3918,1.3967,1.3999,1.4047,1.4068,1.408,1.4129,1.4146,1.4207,1.4214,1.4255,1.4334,1.4365,1.4392,1.4457,1.446,1.4471,1.4496,1.4531,1.4537,1.4543,1.4565,1.4573,1.4477,1.4477,1.4477,0,1.39,1.397,1.3992,1.4041,1.407,1.4079,1.4129,1.4159,1.4219,1.4238,1.4229,1.4327,1.4358,1.443,1.4446,1.4468,1.4481,1.4465,1.4535,1.4541,1.4547,1.4567,1.4576,1.4478,1.4478,1.4478,1.4478,0,1.3986,1.4034,1.4068,1.4125,1.4158,1.4207,1.4236,1.4266,1.4276,1.4299,1.436,1.4398,1.445,1.4468,1.4479,1.4541,1.4534,1.453,1.4512,1.4555,1.4575,1.4583,1.4479,1.4479,1.4479,1.4479,0,0,1.4044,1.4112,1.4124,1.4149,1.4202,1.4239,1.4288,1.4339,1.4364,1.4405,1.4445,1.4512,1.4507,1.4537,1.4551,1.4582,1.4629,1.4573,1.4574,1.458,1.4698,1.47,1.4709,1.4631,1.4633,1.4634,1.4693,0,1.4103,1.419,1.4211,1.4285,1.4329,1.4338,1.4381,1.4417,1.444,1.4479,1.4504,1.455,1.4541,1.4559,1.459,1.4616,1.4652,1.4613,1.4668,1.467,1.4655,1.472,1.4723,1.4777,1.4702,1.4703,1.4704,0,1.4184,1.4226,1.4304,1.435,1.437,1.4407,1.4454,1.4493,1.4534,1.4548,1.4581,1.4592,1.4642,1.4622,1.4691,1.4663,1.4687,1.4704,1.4706,1.4711,1.4688,1.4725,1.4795,1.4802,1.4717,1.4716,1.4715,0,1.4216,1.4292,1.4349,1.4371,1.4426,1.4452,1.4476,1.4516,1.4545,1.4586,1.4604,1.4651,1.4677,1.4712,1.4735,1.4719,1.4801,1.4784,1.4813,1.4812,1.4829,1.4827,1.4901,1.4847,1.4846,1.4846,1.4846,0,1.4279,1.4326,1.4364,1.4398,1.4451,1.4474,1.4526,1.455,1.4585,1.4624,1.4636,1.4672,1.47,1.474,1.4758,1.4811,1.4823,1.4835,1.4838,1.4833,1.4831,1.4848,1.4844,1.4848,1.4848,1.4848,1.4847,0,1.4323,1.4351,1.4412,1.446,1.4472,1.4509,1.4549,1.4583,1.4605,1.4654,1.4667,1.4702,1.4749,1.4775,1.4835,1.4847,1.4905,1.4908,1.4891,1.4893,1.4919,1.4916,1.5006,1.5018,1.4957,1.4957,1.4958,0,1.4361,1.4398,1.4448,1.4475,1.45,1.4543,1.4572,1.4596,1.4626,1.4675,1.4702,1.475,1.4789,1.4864,1.4895,1.494,1.4943,1.4971,1.495,1.4942,1.4941,1.4938,1.4941,1.4975,1.4975,1.4976,1.4976,0,1.4425,1.4436,1.4477,1.4523,1.4558,1.4595,1.4632,1.4653,1.4683,1.4716,1.4764,1.4795,1.4855,1.4902,1.4949,1.4974,1.4979,1.4983,1.4991,1.4985,1.4973,1.4978,1.49,1.498,1.498,1.498,1.4979,1.4979,1.4466,1.4498,1.4538,1.4584,1.4614,1.4648,1.4681,1.4707,1.4748,1.4799,1.4811,1.4861,1.49,1.4965,1.499,1.503,1.5024,1.5037,1.504,1.5043,1.5043,1.4968,1.5039,1.5039,1.5038,1.5038,1.5038,0,1.4528,1.4554,1.4596,1.4647,1.4682,1.4685,1.4726,1.4755,1.4799,1.4836,1.4874,1.4929,1.4974,1.5008,1.5054,1.5079,1.5082,1.509,1.5087,1.5093,1.5046,1.5033,1.5086,1.5086,1.5086,1.5086,1.5086,1.5086,1.4565,1.4619,1.4635,1.4703,1.4729,1.4779,1.4801,1.4833,1.4861,1.4922,1.4959,1.4981,1.5016,1.5065,1.5106,1.5115,1.513,1.5137,1.5146,1.5101,1.5096,1.5091,1.5079,1.5141,1.5141,1.5189,1.5189,1.519]},{"header":{"parameterUnit":"m.s-1","parameterCategory":1,"la1":30.2991,"la2":30.254,"lo1":-89.0895,"lo2":-89.0444,"dy":0.0017,"dx":0.0017,"nx":28,"ny":28,"refTime":"2024-06-23T03:00:00:Z","depth":0,"parameterNumber":3,"parameterNumberName":"V-component_of_WINDS"},"data":[0,0,0,0,0,0,0,0,0,0,0,0,0,0,0,0,0,0,0,0,0,0,0,0,0,0,0,0,0,0,0,0,0,0,0,0,0,0,0,0,0,0,0,0,0,0,0,0,0,0,0,0,0,0,0,0,0,0,-0.2758,-0.2757,0,-0.2683,-0.2683,-0.2682,-0.267,-0.2671,-0.2671,-0.2672,-0.2595,-0.2592,-0.2589,0,0,0,0,0,0,0,0,0,0,0,0,0,-0.2889,-0.2886,-0.2758,-0.2757,-0.2756,-0.2684,-0.2683,-0.2682,-0.267,-0.2671,-0.2671,-0.2672,-0.2596,-0.2592,-0.2589,0,0,0,0,0,0,0,0,0,0,0,0,0,-0.2825,-0.2886,-0.2758,-0.2741,-0.2739,-0.2684,-0.2683,-0.2681,-0.267,-0.2671,-0.2672,-0.2673,-0.2597,-0.2593,-0.2589,-0.2544,0,0,-0.2576,-0.2575,0,0,0,0,0,0,0,0,-0.2828,-0.282,-0.2745,-0.2743,-0.274,-0.2687,-0.27,-0.2635,-0.2669,-0.2696,-0.2672,-0.2673,-0.2625,-0.2618,-0.2602,-0.2541,-0.2537,-0.2576,-0.2574,-0.2572,-0.2571,0,0,0,0,0,0,0,-0.2833,-0.2823,-0.2728,-0.2744,-0.2741,-0.2737,-0.2729,-0.2688,-0.2656,-0.2694,-0.2693,-0.2684,-0.2623,-0.2606,-0.26,-0.2536,-0.2576,-0.2573,-0.257,-0.2569,-0.2434,-0.2433,0,0,0,0,0,0,-0.284,-0.2827,-0.2731,-0.2726,-0.2788,-0.2734,-0.2725,-0.2703,-0.2656,-0.265,-0.2683,-0.2684,-0.2612,-0.2605,-0.2597,-0.2542,-0.2572,-0.2568,-0.2566,-0.2435,-0.2434,-0.2433,0,0,0,0,0,0,-0.2843,-0.2832,-0.2734,-0.2776,-0.2763,-0.2731,-0.2706,-0.2701,-0.2684,-0.2648,-0.2642,-0.2672,-0.2613,-0.2603,-0.2558,-0.2539,-0.2566,-0.2563,-0.2437,-0.2435,-0.2433,-0.243,0,0,0,0,0,0,-0.2847,-0.2833,-0.2816,-0.2776,-0.2761,-0.2695,-0.2705,-0.2699,-0.2677,-0.2677,-0.2636,-0.263,-0.2613,-0.2564,-0.2554,-0.2534,-0.256,-0.2438,-0.2436,-0.2434,-0.2432,-0.2429,-0.2426,0,0,0,0,0,-0.2852,-0.2818,-0.2815,-0.2804,-0.2739,-0.2694,-0.2686,-0.2667,-0.2676,-0.2658,-0.2635,-0.2631,-0.2543,-0.2559,-0.2548,-0.2526,-0.2439,-0.2436,-0.2434,-0.2433,-0.2429,-0.2426,0,0,0,0,0,0,-0.2856,-0.2812,-0.2809,-0.2761,-0.2732,-0.2692,-0.2669,-0.2664,-0.2631,-0.2632,-0.2611,-0.2601,-0.2557,-0.2537,-0.2556,-0.2481,-0.2492,-0.2487,-0.2495,-0.2491,-0.2488,-0.2493,-0.2556,0,0,0,0,0,-0.2852,-0.2819,-0.2783,-0.2744,-0.2729,-0.2702,-0.2682,-0.267,-0.2639,-0.2626,-0.26,-0.2569,-0.2534,-0.2512,-0.2478,-0.2429,-0.242,-0.2409,-0.2406,-0.2404,-0.24,-0.2372,-0.2367,-0.2424,-0.2424,-0.2424,0,0,-0.2842,-0.2814,-0.2795,-0.2744,-0.272,-0.2686,-0.2692,-0.2656,-0.263,-0.262,-0.2575,-0.2556,-0.252,-0.2472,-0.245,-0.2455,-0.2382,-0.2401,-0.2399,-0.2396,-0.2369,-0.2363,-0.2359,-0.2422,-0.2422,-0.2423,0,0,-0.2806,-0.2783,-0.2747,-0.2723,-0.2687,-0.2669,-0.266,-0.2622,-0.2608,-0.2563,-0.2555,-0.2525,-0.2465,-0.244,-0.2419,-0.2375,-0.237,-0.2365,-0.2348,-0.2322,-0.2317,-0.2313,-0.2296,-0.2291,-0.2361,-0.2361,-0.2361,0,-0.2799,-0.2748,-0.273,-0.2694,-0.2672,-0.2662,-0.2626,-0.2604,-0.2558,-0.2542,-0.2548,-0.2474,-0.2449,-0.2395,-0.2385,-0.2368,-0.2358,-0.2369,-0.232,-0.2315,-0.2311,-0.2295,-0.2289,-0.236,-0.236,-0.236,-0.236,0,-0.274,-0.2705,-0.2681,-0.2637,-0.2612,-0.2577,-0.2553,-0.253,-0.2521,-0.2503,-0.2457,-0.2427,-0.2386,-0.2373,-0.2364,-0.2318,-0.2322,-0.2324,-0.2334,-0.2305,-0.229,-0.2284,-0.2359,-0.236,-0.236,-0.236,0,0,-0.2704,-0.2651,-0.2642,-0.2622,-0.2582,-0.2554,-0.2518,-0.2479,-0.2459,-0.2428,-0.2397,-0.2348,-0.2349,-0.2326,-0.2314,-0.2291,-0.2256,-0.2295,-0.2294,-0.2288,-0.2203,-0.2201,-0.2194,-0.2253,-0.2252,-0.2251,-0.2206,0,-0.2663,-0.2598,-0.2582,-0.2527,-0.2494,-0.2484,-0.2453,-0.2424,-0.2406,-0.2375,-0.2355,-0.232,-0.2326,-0.2311,-0.2288,-0.2266,-0.2239,-0.2269,-0.2223,-0.2222,-0.2231,-0.2186,-0.2184,-0.2143,-0.22,-0.2199,-0.2198,0,-0.2606,-0.2574,-0.2516,-0.2479,-0.2465,-0.2437,-0.24,-0.2371,-0.2338,-0.2327,-0.2301,-0.2291,-0.2253,-0.2266,-0.2213,-0.2233,-0.2214,-0.22,-0.2198,-0.2192,-0.2207,-0.2178,-0.2129,-0.2123,-0.2189,-0.2189,-0.219,0,-0.2585,-0.2527,-0.2485,-0.2468,-0.2424,-0.2405,-0.2386,-0.2354,-0.2332,-0.2299,-0.2285,-0.2248,-0.2228,-0.22,-0.218,-0.2192,-0.2129,-0.214,-0.2117,-0.2118,-0.2103,-0.2104,-0.2049,-0.2093,-0.2093,-0.2093,-0.2093,0,-0.254,-0.2505,-0.2475,-0.2448,-0.2408,-0.2389,-0.235,-0.2331,-0.2303,-0.2272,-0.2262,-0.2234,-0.2211,-0.2179,-0.2164,-0.2121,-0.2113,-0.2102,-0.2098,-0.2102,-0.2103,-0.2088,-0.209,-0.2091,-0.2092,-0.2092,-0.2092,0,-0.2509,-0.2487,-0.244,-0.2403,-0.2393,-0.2365,-0.2333,-0.2307,-0.2289,-0.2251,-0.2241,-0.2212,-0.2175,-0.2153,-0.2105,-0.2095,-0.2048,-0.2046,-0.2059,-0.2057,-0.2035,-0.2037,-0.1967,-0.1957,-0.2008,-0.2008,-0.2007,0,-0.2481,-0.2454,-0.2414,-0.2393,-0.2373,-0.234,-0.2317,-0.2298,-0.2274,-0.2235,-0.2214,-0.2176,-0.2144,-0.2084,-0.2059,-0.2023,-0.2019,-0.1997,-0.2013,-0.2018,-0.2017,-0.2019,-0.2016,-0.1994,-0.1994,-0.1993,-0.1993,0,-0.2434,-0.2425,-0.2392,-0.2356,-0.233,-0.23,-0.2271,-0.2254,-0.223,-0.2204,-0.2166,-0.2141,-0.2093,-0.2055,-0.2016,-0.1996,-0.199,-0.1988,-0.1981,-0.1984,-0.1992,-0.1987,-0.205,-0.199,-0.199,-0.199,-0.199,-0.199,-0.2403,-0.2378,-0.2346,-0.231,-0.2286,-0.2259,-0.2233,-0.2212,-0.2179,-0.2139,-0.2129,-0.2089,-0.2057,-0.2004,-0.1984,-0.1951,-0.1955,-0.1944,-0.1941,-0.1939,-0.1938,-0.1999,-0.1944,-0.1944,-0.1944,-0.1945,-0.1945,0,-0.2354,-0.2333,-0.2301,-0.226,-0.2232,-0.223,-0.2197,-0.2174,-0.2138,-0.2109,-0.2078,-0.2034,-0.1997,-0.197,-0.1932,-0.1911,-0.1907,-0.1902,-0.1903,-0.1898,-0.1937,-0.1947,-0.1906,-0.1906,-0.1906,-0.1906,-0.1906,-0.1906,-0.2326,-0.2283,-0.227,-0.2216,-0.2195,-0.2155,-0.2137,-0.2111,-0.2088,-0.2039,-0.2009,-0.1991,-0.1962,-0.1923,-0.1889,-0.1881,-0.1868,-0.1862,-0.1854,-0.1891,-0.1895,-0.1899,-0.1908,-0.186,-0.186,-0.1818,-0.1818,-0.1817]}]]